Location: B
(0.0000°N, 0.0000°E)
Time: 12:28:16
(UTC+02:00)

Cosmos 1025 Rocket - Visible Passes

Search period start: 30 May 2015 00:00
Search period end: 09 June 2015 00:00
Orbit: 596 x 619 km, 82.5° (Epoch: 28 May)

Date Brightness Start Highest point End Pass type
(mag) Time Alt. Az. Time Alt. Az. Time Alt. Az.
31 May 5.0 20:15:18 10° SSW 20:19:14 34° W 20:23:06 10° NNW visible
01 Jun 6.3 06:47:01 10° ENE 06:48:31 12° E 06:50:21 10° ESE visible
01 Jun 6.0 20:29:58 10° SW 20:32:54 17° W 20:35:38 10° NW visible
02 Jun 5.6 06:58:46 10° NNE 07:02:14 24° E 07:05:48 10° SE visible
03 Jun 4.1 07:11:40 10° NNE 07:15:52 49° E 07:20:06 10° SSE visible
04 Jun 3.0 07:25:08 10° N 07:29:29 78° W 07:33:50 10° S visible
06 Jun 6.0 06:16:38 10° NE 06:19:14 16° E 06:22:03 10° SE visible
07 Jun 4.8 06:29:04 10° NNE 06:32:54 32° E 06:36:49 10° SSE visible
08 Jun 3.3 06:42:13 10° N 06:46:32 68° E 06:50:51 10° S visible
